Location: Absher
(46.5583°N, 107.9840°W)
Time: 19:55:28
(UTC+00:00)

QB50P2 - Pass Details

Date: 04 April 2023
Orbit: 581 x 596 km, 98.0° (Epoch: 31 May)

Event Time Altitude Azimuth Distance (km) Brightness Sun altitude
Rises 09:50:57 0° 4° (N) 2,832 ? -27.4°
Reaches altitude 10° 09:53:18 10° 354° (N) 1,923 ? -27.1°
Enters shadow 09:55:14 22° 334° (NNW) 1,297 ? -26.9°
